Time,TemperatureF,DewpointF,PressureIn,WindDirection,WindDirectionDegrees,WindSpeedMPH,WindSpeedGustMPH,Humidity,HourlyPrecipIn,Conditions,Clouds,dailyrainin,SoftwareType,DateUTC
2013-04-09 00:02:00,12.0,11.0,-100.00,NE,44,7.0,10.0,94,0.01,,,-99.99,,2013-04-09 06:02:00,
2013-04-09 00:12:00,12.0,11.0,-100.00,NNE,24,8.0,12.0,93,0.00,,,-99.99,,2013-04-09 06:12:00,
2013-04-09 00:22:00,12.0,11.0,-100.00,NE,40,9.0,12.0,93,0.00,,,-99.99,,2013-04-09 06:22:00,
2013-04-09 00:32:00,12.0,10.0,-100.00,NE,54,10.0,14.0,93,0.00,,,-99.99,,2013-04-09 06:32:00,
2013-04-09 00:42:00,12.0,10.0,-100.00,NE,55,8.0,14.0,93,0.00,,,-99.99,,2013-04-09 06:42:00,
2013-04-09 00:52:00,12.0,10.0,-100.00,ENE,73,7.0,11.0,93,0.00,,,-99.99,,2013-04-09 06:52:00,
2013-04-09 01:02:00,12.0,10.0,-100.00,East,93,7.0,11.0,92,0.00,,,-99.99,,2013-04-09 07:02:00,
2013-04-09 01:12:00,11.0,9.0,-100.00,East,96,9.0,15.0,92,0.00,,,-99.99,,2013-04-09 07:12:00,
2013-04-09 01:22:00,11.0,9.0,-100.00,ESE,107,7.0,13.0,92,0.00,,,-99.99,,2013-04-09 07:22:00,
2013-04-09 01:32:00,11.0,9.0,-100.00,ESE,116,6.0,9.0,93,0.00,,,-99.99,,2013-04-09 07:32:00,
2013-04-09 01:42:00,11.0,9.0,-100.00,ESE,120,5.0,8.0,92,0.01,,,-99.99,,2013-04-09 07:42:00,
2013-04-09 01:52:00,10.0,9.0,-100.00,NE,51,3.0,6.0,92,0.00,,,-99.99,,2013-04-09 07:52:00,
2013-04-09 02:03:00,10.0,8.0,-100.00,NE,40,5.0,8.0,92,0.00,,,-99.99,,2013-04-09 08:03:00,
2013-04-09 02:12:00,9.0,7.0,-100.00,North,1,6.0,11.0,91,0.01,,,-99.99,,2013-04-09 08:12:00,
2013-04-09 02:22:00,7.0,5.0,-100.00,NW,322,9.0,12.0,91,0.01,,,-99.99,,2013-04-09 08:22:00,
2013-04-09 02:32:00,6.0,4.0,-100.00,NW,323,9.0,13.0,91,0.00,,,-99.99,,2013-04-09 08:32:00,
2013-04-09 02:42:00,6.0,4.0,-100.00,NW,309,12.0,17.0,91,0.00,,,-99.99,,2013-04-09 08:42:00,
2013-04-09 02:52:00,6.0,4.0,-100.00,WNW,301,14.0,16.0,91,0.01,,,-99.99,,2013-04-09 08:52:00,
2013-04-09 03:02:00,5.0,3.0,-100.00,WNW,294,12.0,16.0,91,0.03,,,-99.99,,2013-04-09 09:02:00,
2013-04-09 03:12:00,5.0,3.0,-100.00,WNW,301,9.0,13.0,91,0.01,,,-99.99,,2013-04-09 09:12:00,
2013-04-09 03:22:00,5.0,3.0,-100.00,WNW,282,6.0,9.0,91,0.01,,,-99.99,,2013-04-09 09:22:00,
2013-04-09 03:33:00,5.0,3.0,-100.00,WNW,284,10.0,12.0,91,0.01,,,-99.99,,2013-04-09 09:33:00,
2013-04-09 03:43:00,5.0,3.0,-100.00,WNW,299,9.0,11.0,91,0.00,,,-99.99,,2013-04-09 09:43:00,
2013-04-09 03:52:00,5.0,3.0,-100.00,WNW,301,9.0,10.0,91,0.00,,,-99.99,,2013-04-09 09:52:00,
2013-04-09 04:03:00,5.0,3.0,-100.00,WNW,284,9.0,12.0,91,0.03,,,-99.99,,2013-04-09 10:03:00,
2013-04-09 04:12:00,5.0,3.0,-100.00,West,280,11.0,12.0,91,0.03,,,-99.99,,2013-04-09 10:12:00,
2013-04-09 04:23:00,5.0,3.0,-100.00,West,268,10.0,12.0,91,0.04,,,-99.99,,2013-04-09 10:23:00,
2013-04-09 04:33:00,5.0,3.0,-100.00,West,265,9.0,11.0,91,0.03,,,-99.99,,2013-04-09 10:33:00,
2013-04-09 04:42:00,5.0,3.0,-100.00,West,271,8.0,10.0,91,0.01,,,-99.99,,2013-04-09 10:42:00,
2013-04-09 04:52:00,5.0,2.0,-100.00,West,277,9.0,11.0,91,0.01,,,-99.99,,2013-04-09 10:52:00,
2013-04-09 05:02:00,4.0,2.0,-100.00,WNW,285,9.0,11.0,90,0.03,,,-99.99,,2013-04-09 11:02:00,
2013-04-09 05:12:00,4.0,2.0,-100.00,WNW,284,9.0,11.0,90,0.03,,,-99.99,,2013-04-09 11:12:00,
2013-04-09 05:22:00,4.0,2.0,-100.00,West,281,7.0,9.0,90,0.03,,,-99.99,,2013-04-09 11:22:00,
2013-04-09 05:32:00,4.0,2.0,-100.00,West,271,8.0,9.0,90,0.01,,,-99.99,,2013-04-09 11:32:00,
2013-04-09 05:42:00,4.0,2.0,-100.00,West,272,9.0,10.0,90,0.01,,,-99.99,,2013-04-09 11:42:00,
2013-04-09 05:52:00,4.0,2.0,-100.00,West,263,6.0,8.0,90,0.00,,,-99.99,,2013-04-09 11:52:00,
2013-04-09 06:02:00,4.0,2.0,-100.00,WSW,250,6.0,7.0,90,0.00,,,-99.99,,2013-04-09 12:02:00,
2013-04-09 06:12:00,4.0,2.0,-100.00,WSW,246,6.0,7.0,90,0.01,,,-99.99,,2013-04-09 12:12:00,
2013-04-09 06:22:00,4.0,2.0,-100.00,WSW,251,4.0,4.0,90,0.00,,,-99.99,,2013-04-09 12:22:00,
2013-04-09 06:32:00,4.0,2.0,-100.00,West,271,4.0,6.0,90,0.00,,,-99.99,,2013-04-09 12:32:00,
2013-04-09 06:42:00,4.0,2.0,-100.00,West,278,4.0,6.0,90,0.01,,,-99.99,,2013-04-09 12:42:00,
2013-04-09 07:02:00,4.0,2.0,-100.00,NW,316,4.0,7.0,90,0.00,,,-99.99,,2013-04-09 13:02:00,
2013-04-09 07:12:00,4.0,2.0,-100.00,NW,319,3.0,6.0,90,0.00,,,-99.99,,2013-04-09 13:12:00,
2013-04-09 07:22:00,4.0,2.0,-100.00,SW,229,2.0,4.0,90,0.00,,,-99.99,,2013-04-09 13:22:00,
2013-04-09 07:32:00,5.0,3.0,-100.00,SSW,210,4.0,6.0,91,0.00,,,-99.99,,2013-04-09 13:32:00,
2013-04-09 07:42:00,5.0,3.0,-100.00,SW,232,3.0,4.0,91,0.00,,,-99.99,,2013-04-09 13:42:00,
2013-04-09 07:52:00,6.0,4.0,-100.00,South,185,1.0,4.0,91,0.01,,,-99.99,,2013-04-09 13:52:00,
2013-04-09 08:03:00,7.0,5.0,-100.00,ESE,102,4.0,7.0,91,0.01,,,-99.99,,2013-04-09 14:03:00,
2013-04-09 08:12:00,7.0,5.0,-100.00,ENE,75,5.0,9.0,90,0.00,,,-99.99,,2013-04-09 14:12:00,
2013-04-09 08:22:00,7.0,5.0,-100.00,ENE,73,5.0,7.0,90,0.00,,,-99.99,,2013-04-09 14:22:00,
2013-04-09 08:32:00,7.0,5.0,-100.00,East,93,4.0,7.0,91,0.00,,,-99.99,,2013-04-09 14:32:00,
2013-04-09 08:42:00,7.0,5.0,-100.00,East,88,4.0,9.0,91,0.00,,,-99.99,,2013-04-09 14:42:00,
2013-04-09 08:52:00,6.0,4.0,-100.00,ENE,68,4.0,7.0,91,0.00,,,-99.99,,2013-04-09 14:52:00,
2013-04-09 09:02:00,6.0,4.0,-100.00,NE,37,6.0,7.0,90,0.01,,,-99.99,,2013-04-09 15:02:00,
2013-04-09 09:12:00,5.0,3.0,-100.00,NNE,30,6.0,7.0,91,0.00,,,-99.99,,2013-04-09 15:12:00,
2013-04-09 09:22:00,6.0,3.0,-100.00,NE,51,7.0,9.0,91,0.01,,,-99.99,,2013-04-09 15:22:00,
2013-04-09 09:33:00,6.0,4.0,-100.00,ENE,64,7.0,11.0,91,0.00,,,-99.99,,2013-04-09 15:33:00,
2013-04-09 09:43:00,5.0,3.0,-100.00,ENE,72,9.0,11.0,90,0.01,,,-99.99,,2013-04-09 15:43:00,
2013-04-09 09:53:00,5.0,3.0,-100.00,East,83,7.0,9.0,90,0.00,,,-99.99,,2013-04-09 15:53:00,
2013-04-09 10:03:00,5.0,3.0,-100.00,ENE,66,7.0,11.0,90,0.00,,,-99.99,,2013-04-09 16:03:00,
2013-04-09 10:13:00,6.0,4.0,-100.00,ENE,66,6.0,9.0,91,0.00,,,-99.99,,2013-04-09 16:13:00,
2013-04-09 10:23:00,6.0,4.0,-100.00,ENE,58,6.0,7.0,91,0.00,,,-99.99,,2013-04-09 16:23:00,
2013-04-09 10:33:00,5.0,3.0,-100.00,East,88,6.0,8.0,90,0.01,,,-99.99,,2013-04-09 16:33:00,
2013-04-09 10:42:00,5.0,2.0,-100.00,East,86,6.0,9.0,90,0.01,,,-99.99,,2013-04-09 16:42:00,
2013-04-09 10:52:00,5.0,3.0,-100.00,East,90,6.0,9.0,90,0.01,,,-99.99,,2013-04-09 16:52:00,
2013-04-09 11:02:00,5.0,3.0,-100.00,East,99,6.0,9.0,90,0.01,,,-99.99,,2013-04-09 17:02:00,
2013-04-09 11:12:00,6.0,4.0,-100.00,East,90,4.0,7.0,91,0.04,,,-99.99,,2013-04-09 17:12:00,
2013-04-09 11:23:00,7.0,5.0,-100.00,East,83,4.0,7.0,91,0.06,,,-99.99,,2013-04-09 17:23:00,
2013-04-09 11:32:00,7.0,4.0,-100.00,ENE,75,5.0,7.0,90,0.01,,,-99.99,,2013-04-09 17:32:00,
2013-04-09 11:42:00,6.0,4.0,-100.00,ENE,78,6.0,7.0,91,0.01,,,-99.99,,2013-04-09 17:42:00,
2013-04-09 11:53:00,7.0,4.0,-100.00,ENE,72,6.0,9.0,91,0.00,,,-99.99,,2013-04-09 17:53:00,
2013-04-09 12:02:00,6.0,4.0,-100.00,ENE,72,6.0,9.0,90,0.00,,,-99.99,,2013-04-09 18:02:00,
2013-04-09 12:12:00,5.0,3.0,-100.00,ENE,75,7.0,10.0,90,0.00,,,-99.99,,2013-04-09 18:12:00,
2013-04-09 12:22:00,5.0,3.0,-100.00,ENE,76,6.0,9.0,90,0.01,,,-99.99,,2013-04-09 18:22:00,
2013-04-09 12:32:00,6.0,4.0,-100.00,ENE,78,6.0,7.0,91,0.01,,,-99.99,,2013-04-09 18:32:00,
2013-04-09 12:43:00,6.0,4.0,-100.00,East,79,5.0,7.0,90,0.07,,,-99.99,,2013-04-09 18:43:00,
2013-04-09 12:52:00,6.0,4.0,-100.00,East,82,5.0,8.0,92,0.01,,,-99.99,,2013-04-09 18:52:00,
2013-04-09 13:02:00,6.0,4.0,-100.00,East,85,4.0,8.0,91,0.00,,,-99.99,,2013-04-09 19:02:00,
2013-04-09 13:12:00,6.0,4.0,-100.00,East,85,4.0,8.0,91,0.00,,,-99.99,,2013-04-09 19:12:00,
2013-04-09 13:22:00,7.0,5.0,-100.00,East,88,4.0,7.0,92,0.01,,,-99.99,,2013-04-09 19:22:00,
2013-04-09 13:32:00,7.0,5.0,-100.00,ENE,71,5.0,7.0,91,0.01,,,-99.99,,2013-04-09 19:32:00,
2013-04-09 13:41:00,7.0,5.0,-100.00,ENE,71,5.0,7.0,91,0.01,,,-99.99,,2013-04-09 19:41:00,
2013-04-09 13:53:00,7.0,4.0,-100.00,ESE,107,6.0,8.0,90,0.00,,,-99.99,,2013-04-09 19:53:00,
2013-04-09 14:02:00,7.0,5.0,-100.00,ENE,76,4.0,6.0,91,0.03,,,-99.99,,2013-04-09 20:02:00,
2013-04-09 14:12:00,7.0,4.0,-100.00,ESE,106,6.0,7.0,90,0.01,,,-99.99,,2013-04-09 20:12:00,
2013-04-09 14:22:00,7.0,5.0,-100.00,East,92,5.0,7.0,91,0.01,,,-99.99,,2013-04-09 20:22:00,
2013-04-09 14:33:00,8.0,5.0,-100.00,ESE,106,4.0,7.0,91,0.00,,,-99.99,,2013-04-09 20:33:00,
2013-04-09 14:42:00,8.0,6.0,-100.00,ESE,107,5.0,7.0,91,0.01,,,-99.99,,2013-04-09 20:42:00,
2013-04-09 14:52:00,8.0,6.0,-100.00,ESE,107,6.0,7.0,91,0.00,,,-99.99,,2013-04-09 20:52:00,
2013-04-09 15:02:00,8.0,6.0,-100.00,SE,131,4.0,7.0,90,0.00,,,-99.99,,2013-04-09 21:02:00,
2013-04-09 15:13:00,10.0,9.0,-100.00,SE,126,4.0,7.0,95,0.00,,,-99.99,,2013-04-09 21:13:00,
2013-04-09 15:22:00,10.0,9.0,-100.00,SE,126,4.0,7.0,95,0.00,,,-99.99,,2013-04-09 21:22:00,
2013-04-09 15:33:00,9.0,6.0,-100.00,ENE,73,4.0,9.0,91,0.00,,,-99.99,,2013-04-09 21:33:00,
2013-04-09 15:42:00,9.0,6.0,-100.00,ENE,73,4.0,9.0,91,0.00,,,-99.99,,2013-04-09 21:42:00,
2013-04-09 15:52:00,8.0,5.0,-100.00,ESE,110,4.0,7.0,88,0.00,,,-99.99,,2013-04-09 21:52:00,
2013-04-09 16:03:00,8.0,5.0,-100.00,ESE,106,6.0,8.0,88,0.00,,,-99.99,,2013-04-09 22:03:00,
2013-04-09 16:12:00,8.0,5.0,-100.00,ESE,106,4.0,7.0,90,0.00,,,-99.99,,2013-04-09 22:12:00,
2013-04-09 16:23:00,8.0,5.0,-100.00,ESE,109,4.0,7.0,90,0.03,,,-99.99,,2013-04-09 22:23:00,
2013-04-09 16:33:00,8.0,5.0,-100.00,East,89,4.0,6.0,91,0.04,,,-99.99,,2013-04-09 22:33:00,
2013-04-09 16:42:00,7.0,5.0,-100.00,ESE,109,4.0,6.0,90,0.03,,,-99.99,,2013-04-09 22:42:00,
2013-04-09 16:53:00,8.0,6.0,-100.00,ESE,110,5.0,7.0,91,0.03,,,-99.99,,2013-04-09 22:53:00,
2013-04-09 17:03:00,7.0,4.0,-100.00,ESE,106,7.0,9.0,90,0.01,,,-99.99,,2013-04-09 23:03:00,
2013-04-09 17:12:00,7.0,5.0,-100.00,East,83,6.0,9.0,91,0.01,,,-99.99,,2013-04-09 23:12:00,
2013-04-09 17:22:00,7.0,5.0,-100.00,ENE,72,6.0,9.0,91,0.00,,,-99.99,,2013-04-09 23:22:00,
2013-04-09 17:32:00,6.0,3.0,-100.00,NE,51,7.0,9.0,91,0.01,,,-99.99,,2013-04-09 23:32:00,
2013-04-09 17:42:00,5.0,3.0,-100.00,NE,52,7.0,9.0,90,0.00,,,-99.99,,2013-04-09 23:42:00,
2013-04-09 17:52:00,4.0,2.0,-100.00,NE,48,7.0,9.0,90,0.06,,,-99.99,,2013-04-09 23:52:00,
2013-04-09 18:03:00,4.0,2.0,-100.00,NE,48,7.0,9.0,90,0.01,,,-99.99,,2013-04-10 00:03:00,
2013-04-09 18:12:00,4.0,2.0,-100.00,NE,48,7.0,9.0,90,0.01,,,-99.99,,2013-04-10 00:12:00,
2013-04-09 18:22:00,4.0,2.0,-100.00,NE,34,6.0,7.0,90,0.01,,,-99.99,,2013-04-10 00:22:00,
2013-04-09 18:32:00,4.0,2.0,-100.00,NNE,18,3.0,6.0,90,0.07,,,-99.99,,2013-04-10 00:32:00,
2013-04-09 18:42:00,5.0,3.0,-100.00,North,7,2.0,4.0,90,0.03,,,-99.99,,2013-04-10 00:42:00,
2013-04-09 18:52:00,6.0,4.0,-100.00,NNW,333,1.0,2.0,92,0.01,,,-99.99,,2013-04-10 00:52:00,
2013-04-09 19:02:00,5.0,2.0,-100.00,SSW,209,2.0,4.0,89,0.00,,,-99.99,,2013-04-10 01:02:00,
2013-04-09 19:12:00,5.0,3.0,-100.00,SW,230,2.0,4.0,90,0.00,,,-99.99,,2013-04-10 01:12:00,
2013-04-09 19:23:00,5.0,2.0,-100.00,SW,229,3.0,4.0,90,0.00,,,-99.99,,2013-04-10 01:23:00,
2013-04-09 19:32:00,5.0,2.0,-100.00,WSW,247,3.0,4.0,90,0.00,,,-99.99,,2013-04-10 01:32:00,
2013-04-09 19:42:00,5.0,2.0,-100.00,West,268,2.0,4.0,90,0.01,,,-99.99,,2013-04-10 01:42:00,
2013-04-09 19:52:00,4.0,2.0,-100.00,NW,304,5.0,9.0,89,0.00,,,-99.99,,2013-04-10 01:52:00,
2013-04-09 20:02:00,4.0,1.0,-100.00,NW,311,8.0,10.0,90,0.01,,,-99.99,,2013-04-10 02:02:00,
2013-04-09 20:12:00,4.0,1.0,-100.00,WNW,302,8.0,9.0,90,0.00,,,-99.99,,2013-04-10 02:12:00,
2013-04-09 20:22:00,3.0,1.0,-100.00,WNW,298,8.0,9.0,90,0.00,,,-99.99,,2013-04-10 02:22:00,
2013-04-09 20:32:00,3.0,1.0,-100.00,WNW,298,8.0,10.0,90,0.00,,,-99.99,,2013-04-10 02:32:00,
2013-04-09 20:42:00,3.0,1.0,-100.00,WNW,292,8.0,10.0,90,0.00,,,-99.99,,2013-04-10 02:42:00,
2013-04-09 20:52:00,3.0,0.0,-100.00,WNW,284,10.0,13.0,89,0.01,,,-99.99,,2013-04-10 02:52:00,
2013-04-09 21:02:00,3.0,0.0,-100.00,WNW,287,12.0,14.0,89,0.00,,,-99.99,,2013-04-10 03:02:00,
2013-04-09 21:12:00,2.0,0.0,-100.00,WNW,282,13.0,15.0,89,0.00,,,-99.99,,2013-04-10 03:12:00,
2013-04-09 21:22:00,2.0,0.0,-100.00,West,278,12.0,15.0,89,0.00,,,-99.99,,2013-04-10 03:22:00,
2013-04-09 21:33:00,2.0,0.0,-100.00,West,277,12.0,14.0,89,0.00,,,-99.99,,2013-04-10 03:33:00,
2013-04-09 21:43:00,2.0,0.0,-100.00,West,278,13.0,16.0,89,0.00,,,-99.99,,2013-04-10 03:43:00,
2013-04-09 21:52:00,2.0,0.0,-100.00,WNW,282,14.0,17.0,89,0.00,,,-99.99,,2013-04-10 03:52:00,
2013-04-09 22:03:00,2.0,-1.0,-100.00,WNW,287,13.0,16.0,89,0.00,,,-99.99,,2013-04-10 04:03:00,
2013-04-09 22:13:00,2.0,-1.0,-100.00,WNW,282,12.0,14.0,89,0.00,,,-99.99,,2013-04-10 04:13:00,
2013-04-09 22:23:00,1.0,-1.0,-100.00,West,280,13.0,15.0,89,0.00,,,-99.99,,2013-04-10 04:23:00,
2013-04-09 22:33:00,1.0,-2.0,-100.00,WNW,284,14.0,17.0,89,0.00,,,-99.99,,2013-04-10 04:33:00,
2013-04-09 22:42:00,1.0,-2.0,-100.00,WNW,287,14.0,17.0,89,0.00,,,-99.99,,2013-04-10 04:42:00,
2013-04-09 22:52:00,0.0,-2.0,-100.00,WNW,287,14.0,17.0,89,0.00,,,-99.99,,2013-04-10 04:52:00,
2013-04-09 23:02:00,0.0,-3.0,-100.00,West,280,12.0,14.0,88,0.00,,,-99.99,,2013-04-10 05:02:00,
2013-04-09 23:13:00,-1.0,-4.0,-100.00,West,278,12.0,15.0,87,0.00,,,-99.99,,2013-04-10 05:13:00,
2013-04-09 23:23:00,-2.0,-5.0,-100.00,West,277,11.0,12.0,87,0.00,,,-99.99,,2013-04-10 05:23:00,
2013-04-09 23:33:00,-1.0,-4.0,-100.00,West,275,10.0,11.0,88,0.00,,,-99.99,,2013-04-10 05:33:00,
2013-04-09 23:42:00,-1.0,-4.0,-100.00,West,268,8.0,10.0,88,0.00,,,-99.99,,2013-04-10 05:42:00,
2013-04-09 23:52:00,-2.0,-4.0,-100.00,West,275,9.0,11.0,87,0.00,,,-99.99,,2013-04-10 05:52:00,